| time (UTC) | temp F | wind direction | speed knots | gust knots | rain 1hr in | rain 24hr in | rain mn in | humidity % | barometer mb |
| 20260504023041 | 56 | 177 | 0.0 | 0.9 | 0.00 | 0.00 | 0.00 | 42 | 1001.3 |
| 20260504021542 | 57 | 216 | 0.0 | 0.0 | 0.00 | 0.00 | 0.00 | 42 | 1001.6 |
| 20260504020042 | 58 | 216 | 0.0 | 1.7 | 0.00 | 0.00 | 0.00 | 41 | 1001.9 |
| 20260504014536 | 59 | 241 | 0.0 | 2.6 | 0.00 | 0.00 | 0.00 | 39 | 1002.1 |
| 20260504013036 | 60 | 246 | 0.0 | 2.6 | 0.00 | 0.00 | 0.00 | 38 | 1002.3 |
| 20260504011534 | 61 | 250 | 0.9 | 4.3 | 0.00 | 0.00 | 0.00 | 36 | 1002.4 |
| 20260504010030 | 62 | 247 | 1.7 | 6.1 | 0.00 | 0.00 | 0.00 | 35 | 1002.6 |
| 20260504004530 | 63 | 261 | 1.7 | 5.2 | 0.00 | 0.00 | 0.00 | 34 | 1002.7 |
| 20260504003038 | 64 | 257 | 2.6 | 6.1 | 0.00 | 0.00 | 0.00 | 32 | 1002.8 |
| 20260504001528 | 64 | 261 | 2.6 | 9.6 | 0.00 | 0.00 | 0.00 | 31 | 1002.8 |
| 20260504000050 | 65 | 248 | 2.6 | 7.0 | 0.00 | 0.00 | 0.00 | 29 | 1002.8 |
| 20260503234525 | 66 | 270 | 0.9 | 7.8 | 0.00 | 0.00 | 0.00 | 30 | 1003.0 |
| 20260503233023 | 65 | 263 | 2.6 | 7.0 | 0.00 | 0.00 | 0.00 | 29 | 1003.2 |
| 20260503231522 | 66 | 272 | 3.5 | 7.0 | 0.00 | 0.00 | 0.00 | 29 | 1003.4 |
| 20260503230020 | 66 | 270 | 2.6 | 8.7 | 0.00 | 0.00 | 0.00 | 30 | 1003.6 |
| 20260503224520 | 66 | 285 | 0.0 | 7.0 | 0.00 | 0.00 | 0.00 | 29 | 1003.6 |
| 20260503223019 | 66 | 269 | 3.5 | 7.8 | 0.00 | 0.00 | 0.00 | 28 | 1003.6 |
| 20260503221517 | 66 | 260 | 2.6 | 10.4 | 0.00 | 0.00 | 0.00 | 28 | 1003.6 |
| 20260503220016 | 66 | 244 | 6.1 | 10.4 | 0.00 | 0.00 | 0.00 | 28 | 1003.8 |
| 20260503214515 | 66 | 250 | 6.1 | 11.3 | 0.00 | 0.00 | 0.00 | 28 | 1003.9 |
| 20260503213011 | 65 | 250 | 3.5 | 10.4 | 0.00 | 0.00 | 0.00 | 28 | 1004.2 |
| 20260503211514 | 65 | 262 | 5.2 | 10.4 | 0.00 | 0.00 | 0.00 | 29 | 1004.4 |
| 20260503210008 | 65 | 248 | 4.3 | 11.3 | 0.00 | 0.00 | 0.00 | 30 | 1004.6 |
| 20260503204504 | 64 | 263 | 5.2 | 11.3 | 0.00 | 0.00 | 0.00 | 29 | 1004.8 |
| 20260503203002 | 64 | 304 | 2.6 | 9.6 | 0.00 | 0.00 | 0.00 | 30 | 1005.2 |
| 20260503201501 | 64 | 271 | 5.2 | 10.4 | 0.00 | 0.00 | 0.00 | 30 | 1005.4 |
| 20260503200001 | 62 | 269 | 7.0 | 12.2 | 0.00 | 0.00 | 0.00 | 31 | 1005.6 |
| 20260503194601 | 63 | 275 | 6.1 | 15.6 | 0.00 | 0.00 | 0.00 | 30 | 1005.6 |
| 20260503193100 | 62 | 285 | 8.7 | 18.2 | 0.00 | 0.00 | 0.00 | 30 | 1005.8 |
| 20260503191604 | 62 | 263 | 6.1 | 13.0 | 0.00 | 0.00 | 0.00 | 30 | 1005.8 |
| 20260503184558 | 64 | 279 | 5.2 | 10.4 | 0.00 | 0.00 | 0.00 | 30 | 1006.1 |
| 20260503183056 | 63 | 327 | 2.6 | 8.7 | 0.00 | 0.00 | 0.00 | 30 | 1006.4 |
| 20260503181603 | 63 | 306 | 1.7 | 5.2 | 0.00 | 0.00 | 0.00 | 29 | 1006.3 |
| 20260503180053 | 63 | 293 | 2.6 | 7.0 | 0.00 | 0.00 | 0.00 | 31 | 1006.6 |
| 20260503174552 | 63 | 292 | 0.9 | 9.6 | 0.00 | 0.00 | 0.00 | 28 | 1006.6 |
| 20260503173056 | 62 | 311 | 2.6 | 7.8 | 0.00 | 0.00 | 0.00 | 26 | 1006.7 |
| 20260503171546 | 62 | 22 | 1.7 | 7.8 | 0.00 | 0.00 | 0.00 | 26 | 1006.8 |
| 20260503081531 | 48 | 88 | 0.0 | 0.0 | 0.00 | 0.00 | 0.00 | 68 | 1005.6 |
| 20260503071521 | 50 | 88 | 0.0 | 0.0 | 0.00 | 0.00 | 0.00 | 62 | 1005.9 |
| 20260503054510 | 51 | 88 | 0.0 | 2.6 | 0.00 | 0.00 | 0.00 | 64 | 1006.9 |
| 20260503053007 | 52 | 86 | 0.0 | 4.3 | 0.00 | 0.00 | 0.00 | 62 | 1007.1 |
| 20260503051502 | 52 | 84 | 0.0 | 0.9 | 0.00 | 0.00 | 0.00 | 62 | 1007.7 |
| 20260503050103 | 52 | 84 | 0.0 | 0.9 | 0.00 | 0.00 | 0.00 | 61 | 1007.5 |
| 20260503044610 | 52 | 84 | 0.0 | 1.7 | 0.00 | 0.00 | 0.00 | 62 | 1007.6 |
| 20260503043112 | 51 | 17 | 3.5 | 7.0 | 0.00 | 0.00 | 0.00 | 64 | 1007.9 |
| 20260503041604 | 51 | 100 | 0.0 | 0.0 | 0.00 | 0.00 | 0.00 | 64 | 1007.6 |
| 20260503040106 | 51 | 100 | 0.0 | 0.0 | 0.00 | 0.00 | 0.00 | 64 | 1007.4 |
| 20260503034554 | 52 | 100 | 0.0 | 0.0 | 0.00 | 0.00 | 0.00 | 62 | 1007.9 |
| 20260503033106 | 53 | 100 | 0.0 | 0.0 | 0.00 | 0.00 | 0.00 | 62 | 1008.2 |
| 20260503031552 | 53 | 101 | 0.0 | 0.0 | 0.00 | 0.00 | 0.00 | 61 | 1008.2 |
| 20260503030052 | 54 | 101 | 0.0 | 0.9 | 0.00 | 0.00 | 0.00 | 60 | 1008.4 |
| 20260503024552 | 55 | 101 | 0.0 | 2.6 | 0.00 | 0.00 | 0.00 | 58 | 1008.5 |